Location: Gro�sch�nbrunn
(49.5760°N, 11.8868°E)
Time: 15:05:52
(UTC+00:00)

SL-08 RB Rocket - Pass Details

Date: 18 September 2020
Orbit: 646 x 684 km, 97.8° (Epoch: 27 October)

Event Time Altitude Azimuth Distance (km) Brightness Sun altitude
Rises 17:54:47 0° 142° (SE) 3,019 6.6 -6.7°
Reaches altitude 10° 17:57:08 10° 135° (SE) 2,103 5.8 -7.1°
Maximum altitude 18:01:21 38° 68° (ENE) 1,025 4.3 -7.7°
Drops below altitude 10° 18:05:35 10° 1° (N) 2,095 6.4 -8.4°
Sets 18:07:55 0° 353° (N) 3,006 7.4 -8.8°
